Weather in Regensburg

Germany     49°00′54″N   12°06′24″E
temp.,
°C
wind,
m/s
gust,
m/s
humid.,
%
clouds,
%
prec.,
mm/h
press.,
hPa
HPBL,
m
12 may, wed
wed1223:00+11w51194100 0.6 1009770
02:00+10w3995100 1.3 1010627
05:00+10w4996100 1.6 1009546
08:00+10w3897100 6.9 1011566
11:00+10wnw4996100 2.3 1011673
14:00+10wnw3895100 3.5 1011601
17:00+10wnw4896100 1.6 1010566
20:00+9wnw3897100 2.3 1010439
13 may, thu
thu1323:00+9wnw3897100 1.5 1010391
02:00+8wnw41097100 2.8 1008454
05:00+8wnw41197100 0.9 1007685
08:00+8w51197100 6.2 1007609
11:00+9wnw4996100 6.1 1007788
14:00+10wnw3995100 8.7 1007707
17:00+10nw3691100 0.9 1007549
20:00+10wsw1192100 1.1 100742
14 may, fri
fri1423:00+9w4995100 0.4 1008437
02:00+7wsw3109398 0.4 1008486
05:00+5sw28965 0.0 1009235
08:00+8wsw378831 0.0 1009328
11:00+13w465883 0.1 10091696
14:00+15w3550100 0.2 10071966
17:00+15w335810 0.3 10081314
20:00+11wnw23805 0.6 100858
15 may, sat
sat1523:00+8wnw11897 0.1 101112
02:00+6w229253 0.1 101217
05:00+5w1195100 0.0 101214
08:00+9w1383100 0.0 1013218
11:00+12sw2370100 0.1 1012901
14:00+14sw345698 0.6 10111423
17:00+14sw346358 0.6 10101240
20:00+11wsw118198 1.3 101014
16 may, sun
sun1623:00+8wsw118872 0.0 101111
02:00+8w3994100 0.3 1012448
05:00+8sw3798100 2.8 1012442
08:00+9sw369163 2.8 1013433
11:00+9sw3988100 0.1 1013657
14:00+13sw467614 0.8 1012905
17:00+17wsw594830 0.6 10092541
20:00+12nw1277100 0.7 101054